This is the latest recevied weather packets stored in our database for station/object PD2SKZ-12. If no packets are shown the sender has not sent any weather packets the latest 10 day(s).
| Time | Temp. | Humidity | Pressure | Rain* | Wind** | Luminosity | Snow |
|---|---|---|---|---|---|---|---|
| 1777313246 | 13.89° C | 36% | 1023 hPa | 0 mm | - | - | - |
| 1777306646 | 15.56° C | 34% | 1023.4 hPa | 0 mm | - | - | - |
| 1777305766 | 15° C | 38% | 1023.3 hPa | 0 mm | - | - | - |
| 1777305446 | 15° C | 40% | 1023.3 hPa | 0 mm | - | - | - |
| 1777304546 | 15.56° C | 43% | 1023.5 hPa | 0 mm | - | - | - |
| 1777303046 | 16.11° C | 36% | 1023.6 hPa | 0 mm | - | - | - |
| 1777301546 | 16.11° C | 42% | 1023.9 hPa | 0 mm | - | - | - |
| 1777299446 | 17.22° C | 51% | 1024 hPa | 0 mm | - | - | - |
| 1777298546 | 17.78° C | 48% | 1024.1 hPa | 0 mm | - | - | - |
| 1777297346 | 17.22° C | 36% | 1024.3 hPa | 0 mm | - | - | - |
| 1777296446 | 16.67° C | 32% | 1024.6 hPa | 0 mm | - | - | - |
| 1777296197 | 17.22° C | 35% | 1024.6 hPa | 0 mm | - | - | - |
| 1777295846 | 17.78° C | 37% | 1024.6 hPa | 0 mm | - | - | - |
| 1777294387 | 17.78° C | 42% | 1024.7 hPa | 0 mm | - | - | - |
| 1777292547 | 16.67° C | 44% | 1025 hPa | 0 mm | - | - | - |
| 1777291666 | 16.67° C | 40% | 1024.9 hPa | 0 mm | - | - | - |
| 1777290446 | 17.22° C | 43% | 1025.2 hPa | 0 mm | - | - | - |
| 1777287747 | 16.11° C | 44% | 1025.5 hPa | 0 mm | - | - | - |
| 1777287447 | 16.67° C | 42% | 1025.5 hPa | 0 mm | - | - | - |
| 1777286847 | 17.78° C | 42% | 1025.4 hPa | 0 mm | - | - | - |
| 1777286249 | 16.11° C | 45% | 1025.4 hPa | 0 mm | - | - | - |
| 1777285647 | 17.22° C | 45% | 1025.5 hPa | 0 mm | - | - | - |
| 1777285347 | 16.11° C | 47% | 1025.6 hPa | 0 mm | - | - | - |
| 1777284447 | 16.67° C | 50% | 1025.6 hPa | 0 mm | - | - | - |
| 1777283566 | 16.11° C | 54% | 1025.7 hPa | 0 mm | - | - | - |
* Rain latest hour (hover to see other rain measurements)
** Current wind speed in m/s (hover to see current wind gust speed)